Time,TemperatureF,DewpointF,PressureIn,WindDirection,WindDirectionDegrees,WindSpeedMPH,WindSpeedGustMPH,Humidity,HourlyPrecipIn,Conditions,Clouds,dailyrainin,SoftwareType,DateUTC
2013-06-08 00:01:00,57.6,57.0,29.68,SW,228,0.0,0.0,98,0.00,,,0.00,oem by Ross Wheeler,2013-06-08 04:01:00,
2013-06-08 00:05:00,57.6,57.0,29.67,NNE,29,1.0,6.0,98,0.22,,,0.02,oem by Ross Wheeler,2013-06-08 04:05:00,
2013-06-08 00:10:00,57.5,57.0,29.67,SSW,207,0.0,7.0,98,0.23,,,0.04,oem by Ross Wheeler,2013-06-08 04:10:00,
2013-06-08 00:16:00,57.8,57.0,29.67,SW,226,0.0,5.0,98,0.21,,,0.04,oem by Ross Wheeler,2013-06-08 04:16:00,
2013-06-08 00:20:00,57.8,57.0,29.69,SE,132,0.0,5.0,98,0.19,,,0.05,oem by Ross Wheeler,2013-06-08 04:20:00,
2013-06-08 00:25:00,57.7,57.0,29.66,NE,54,3.0,6.0,98,0.40,,,0.28,oem by Ross Wheeler,2013-06-08 04:25:00,
2013-06-08 00:31:00,58.0,58.0,29.67,NE,49,2.0,6.0,98,0.49,,,0.43,oem by Ross Wheeler,2013-06-08 04:31:00,
2013-06-08 00:35:00,58.2,58.0,29.69,NW,314,1.0,5.0,98,0.59,,,0.58,oem by Ross Wheeler,2013-06-08 04:35:00,
2013-06-08 00:40:00,58.1,58.0,29.68,NE,46,2.0,5.0,98,0.84,,,0.84,oem by Ross Wheeler,2013-06-08 04:40:00,
2013-06-08 00:46:00,58.0,58.0,29.67,East,98,0.0,5.0,98,0.94,,,0.94,oem by Ross Wheeler,2013-06-08 04:46:00,
2013-06-08 00:55:00,58.0,58.0,29.67,WSW,248,2.0,6.0,98,1.03,,,1.03,oem by Ross Wheeler,2013-06-08 04:55:00,
2013-06-08 01:01:00,58.2,58.0,29.67,ENE,61,1.0,6.0,98,1.14,,,1.14,oem by Ross Wheeler,2013-06-08 05:01:00,
2013-06-08 01:11:00,58.5,58.0,29.66,WSW,257,0.0,2.0,98,1.19,,,1.23,oem by Ross Wheeler,2013-06-08 05:11:00,
2013-06-08 01:16:00,58.7,58.0,29.65,NE,42,0.0,2.0,98,1.19,,,1.23,oem by Ross Wheeler,2013-06-08 05:16:00,
2013-06-08 01:25:00,58.5,58.0,29.64,East,79,3.0,5.0,98,0.95,,,1.23,oem by Ross Wheeler,2013-06-08 05:25:00,
2013-06-08 01:31:00,58.8,58.0,29.63,SW,235,1.0,4.0,98,0.80,,,1.23,oem by Ross Wheeler,2013-06-08 05:31:00,
2013-06-08 01:41:00,61.2,61.0,29.62,NNE,30,0.0,5.0,99,0.37,,,1.23,oem by Ross Wheeler,2013-06-08 05:41:00,
2013-06-08 01:46:00,61.8,62.0,29.62,ENE,78,0.0,2.0,99,0.29,,,1.23,oem by Ross Wheeler,2013-06-08 05:46:00,
2013-06-08 01:55:00,61.9,62.0,29.62,East,96,0.0,1.0,99,0.20,,,1.23,oem by Ross Wheeler,2013-06-08 05:55:00,
2013-06-08 02:01:00,61.9,62.0,29.61,East,95,0.0,1.0,99,0.10,,,1.23,oem by Ross Wheeler,2013-06-08 06:01:00,
2013-06-08 02:10:00,62.2,62.0,29.61,ENE,68,1.0,2.0,99,0.00,,,1.23,oem by Ross Wheeler,2013-06-08 06:10:00,
2013-06-08 02:16:00,62.5,62.0,29.61,ENE,70,0.0,1.0,99,0.00,,,1.23,oem by Ross Wheeler,2013-06-08 06:16:00,
2013-06-08 02:25:00,62.8,63.0,29.60,ENE,57,0.0,0.0,99,0.00,,,1.23,oem by Ross Wheeler,2013-06-08 06:25:00,
2013-06-08 02:31:00,62.9,63.0,29.60,ENE,57,0.0,0.0,99,0.00,,,1.23,oem by Ross Wheeler,2013-06-08 06:31:00,
2013-06-08 02:40:00,62.9,63.0,29.59,ENE,73,0.0,0.0,99,0.00,,,1.23,oem by Ross Wheeler,2013-06-08 06:40:00,
2013-06-08 02:46:00,62.9,63.0,29.59,ENE,67,0.0,0.0,99,0.00,,,1.23,oem by Ross Wheeler,2013-06-08 06:46:00,
2013-06-08 02:55:00,63.0,63.0,29.58,ENE,58,0.0,0.0,99,0.00,,,1.23,oem by Ross Wheeler,2013-06-08 06:55:00,
2013-06-08 03:01:00,63.0,63.0,29.58,ENE,76,0.0,0.0,99,0.00,,,1.23,oem by Ross Wheeler,2013-06-08 07:01:00,
2013-06-08 03:10:00,63.3,63.0,29.57,ENE,61,0.0,2.0,99,0.00,,,1.23,oem by Ross Wheeler,2013-06-08 07:10:00,
2013-06-08 03:16:00,63.3,63.0,29.57,ENE,77,0.0,1.0,99,0.00,,,1.23,oem by Ross Wheeler,2013-06-08 07:16:00,
2013-06-08 03:25:00,63.3,63.0,29.56,ESE,102,2.0,3.0,99,0.00,,,1.23,oem by Ross Wheeler,2013-06-08 07:25:00,
2013-06-08 03:31:00,63.3,63.0,29.56,ENE,77,0.0,3.0,99,0.00,,,1.23,oem by Ross Wheeler,2013-06-08 07:31:00,
2013-06-08 03:40:00,62.1,62.0,29.55,ENE,62,1.0,3.0,98,0.00,,,1.23,oem by Ross Wheeler,2013-06-08 07:40:00,
2013-06-08 03:46:00,61.8,61.0,29.54,ENE,58,0.0,3.0,98,0.00,,,1.23,oem by Ross Wheeler,2013-06-08 07:46:00,
2013-06-08 03:55:00,62.0,62.0,29.54,ESE,102,1.0,2.0,99,0.00,,,1.23,oem by Ross Wheeler,2013-06-08 07:55:00,
2013-06-08 04:01:00,62.1,62.0,29.53,ENE,65,2.0,4.0,99,0.00,,,1.23,oem by Ross Wheeler,2013-06-08 08:01:00,
2013-06-08 04:10:00,62.6,62.0,29.53,NE,41,0.0,9.0,99,0.02,,,1.25,oem by Ross Wheeler,2013-06-08 08:10:00,
2013-06-08 04:16:00,62.3,62.0,29.52,South,187,0.0,3.0,99,0.04,,,1.27,oem by Ross Wheeler,2013-06-08 08:16:00,
2013-06-08 04:25:00,61.6,61.0,29.52,ENE,62,2.0,8.0,98,0.05,,,1.28,oem by Ross Wheeler,2013-06-08 08:25:00,
2013-06-08 04:31:00,61.6,61.0,29.52,East,84,2.0,8.0,98,0.06,,,1.29,oem by Ross Wheeler,2013-06-08 08:31:00,
2013-06-08 04:40:00,60.3,60.0,29.52,East,79,0.0,4.0,98,0.06,,,1.29,oem by Ross Wheeler,2013-06-08 08:40:00,
2013-06-08 04:46:00,59.6,59.0,29.52,WSW,239,2.0,7.0,98,0.07,,,1.30,oem by Ross Wheeler,2013-06-08 08:46:00,
2013-06-08 04:55:00,58.6,58.0,29.52,WNW,291,2.0,7.0,98,0.10,,,1.33,oem by Ross Wheeler,2013-06-08 08:55:00,
2013-06-08 05:01:00,58.3,58.0,29.52,ENE,60,3.0,8.0,98,0.10,,,1.33,oem by Ross Wheeler,2013-06-08 09:01:00,
2013-06-08 05:10:00,57.6,57.0,29.52,East,91,2.0,6.0,98,0.10,,,1.35,oem by Ross Wheeler,2013-06-08 09:10:00,
2013-06-08 05:16:00,57.2,57.0,29.52,WNW,294,0.0,7.0,98,0.08,,,1.35,oem by Ross Wheeler,2013-06-08 09:16:00,
2013-06-08 05:25:00,56.6,56.0,29.52,WNW,285,2.0,11.0,98,0.08,,,1.36,oem by Ross Wheeler,2013-06-08 09:25:00,
2013-06-08 05:31:00,56.4,56.0,29.53,East,82,2.0,11.0,98,0.07,,,1.36,oem by Ross Wheeler,2013-06-08 09:31:00,
2013-06-08 05:40:00,56.1,56.0,29.53,East,98,1.0,10.0,98,0.07,,,1.36,oem by Ross Wheeler,2013-06-08 09:40:00,
2013-06-08 05:46:00,56.0,56.0,29.54,SSE,159,2.0,10.0,98,0.06,,,1.36,oem by Ross Wheeler,2013-06-08 09:46:00,
2013-06-08 05:55:00,55.8,55.0,29.55,SSE,156,0.0,8.0,98,0.03,,,1.36,oem by Ross Wheeler,2013-06-08 09:55:00,
2013-06-08 06:01:00,55.8,55.0,29.55,SSW,197,0.0,8.0,98,0.02,,,1.36,oem by Ross Wheeler,2013-06-08 10:01:00,
2013-06-08 06:10:00,55.8,55.0,29.55,North,9,7.0,7.0,98,0.01,,,1.36,oem by Ross Wheeler,2013-06-08 10:10:00,
2013-06-08 06:16:00,55.8,55.0,29.56,SSE,158,2.0,6.0,98,0.01,,,1.36,oem by Ross Wheeler,2013-06-08 10:16:00,
2013-06-08 06:25:00,55.8,55.0,29.57,ENE,68,0.0,9.0,98,0.00,,,1.36,oem by Ross Wheeler,2013-06-08 10:25:00,
2013-06-08 06:31:00,55.7,55.0,29.57,NNW,347,2.0,7.0,98,0.00,,,1.36,oem by Ross Wheeler,2013-06-08 10:31:00,
2013-06-08 06:40:00,55.7,55.0,29.57,ENE,73,1.0,7.0,98,0.00,,,1.36,oem by Ross Wheeler,2013-06-08 10:40:00,
2013-06-08 06:46:00,55.7,55.0,29.57,NNE,13,2.0,8.0,98,0.00,,,1.36,oem by Ross Wheeler,2013-06-08 10:46:00,
2013-06-08 06:55:00,55.7,55.0,29.58,ENE,75,1.0,8.0,98,0.00,,,1.36,oem by Ross Wheeler,2013-06-08 10:55:00,
2013-06-08 07:01:00,55.8,55.0,29.58,NW,313,3.0,8.0,98,0.00,,,1.36,oem by Ross Wheeler,2013-06-08 11:01:00,
2013-06-08 07:10:00,55.9,55.0,29.60,WSW,252,3.0,6.0,98,0.00,,,1.36,oem by Ross Wheeler,2013-06-08 11:10:00,
2013-06-08 07:16:00,56.0,56.0,29.62,WNW,291,3.0,6.0,98,0.00,,,1.36,oem by Ross Wheeler,2013-06-08 11:16:00,
2013-06-08 07:25:00,55.9,55.0,29.64,NNE,31,1.0,8.0,98,0.00,,,1.36,oem by Ross Wheeler,2013-06-08 11:25:00,
2013-06-08 07:31:00,55.9,55.0,29.64,WSW,252,5.0,8.0,98,0.00,,,1.36,oem by Ross Wheeler,2013-06-08 11:31:00,
2013-06-08 07:40:00,56.1,56.0,29.66,WSW,241,3.0,7.0,98,0.00,,,1.36,oem by Ross Wheeler,2013-06-08 11:40:00,
2013-06-08 07:46:00,56.1,55.0,29.67,SSW,210,3.0,11.0,97,0.00,,,1.36,oem by Ross Wheeler,2013-06-08 11:46:00,
2013-06-08 07:55:00,56.1,55.0,29.67,WSW,255,2.0,9.0,97,0.00,,,1.36,oem by Ross Wheeler,2013-06-08 11:55:00,
2013-06-08 08:01:00,56.1,55.0,29.67,SW,218,2.0,9.0,97,0.00,,,1.36,oem by Ross Wheeler,2013-06-08 12:01:00,
2013-06-08 08:10:00,56.5,56.0,29.67,SW,231,5.0,10.0,97,0.00,,,1.36,oem by Ross Wheeler,2013-06-08 12:10:00,
2013-06-08 08:16:00,56.8,56.0,29.68,West,279,1.0,13.0,96,0.00,,,1.36,oem by Ross Wheeler,2013-06-08 12:16:00,
2013-06-08 08:25:00,57.6,56.0,29.70,NW,314,1.0,9.0,95,0.00,,,1.36,oem by Ross Wheeler,2013-06-08 12:25:00,
2013-06-08 08:31:00,57.6,56.0,29.71,WSW,248,7.0,10.0,93,0.00,,,1.36,oem by Ross Wheeler,2013-06-08 12:31:00,
2013-06-08 08:40:00,58.0,56.0,29.71,West,264,2.0,5.0,93,0.00,,,1.36,oem by Ross Wheeler,2013-06-08 12:40:00,
2013-06-08 08:46:00,58.2,56.0,29.71,North,9,0.0,7.0,93,0.00,,,1.36,oem by Ross Wheeler,2013-06-08 12:46:00,
2013-06-08 08:55:00,58.8,57.0,29.72,West,267,9.0,9.0,92,0.00,,,1.36,oem by Ross Wheeler,2013-06-08 12:55:00,
2013-06-08 09:01:00,58.9,56.0,29.73,SW,235,6.0,13.0,90,0.00,,,1.36,oem by Ross Wheeler,2013-06-08 13:01:00,
2013-06-08 09:10:00,59.2,56.0,29.74,West,264,5.0,12.0,89,0.00,,,1.36,oem by Ross Wheeler,2013-06-08 13:10:00,
2013-06-08 09:16:00,59.4,56.0,29.75,West,259,7.0,10.0,89,0.00,,,1.36,oem by Ross Wheeler,2013-06-08 13:16:00,
2013-06-08 09:25:00,60.0,57.0,29.77,West,270,3.0,14.0,90,0.00,,,1.36,oem by Ross Wheeler,2013-06-08 13:25:00,
2013-06-08 09:31:00,59.9,56.0,29.77,West,269,2.0,10.0,88,0.00,,,1.36,oem by Ross Wheeler,2013-06-08 13:31:00,
2013-06-08 09:40:00,60.0,57.0,29.78,SW,225,3.0,10.0,88,0.00,,,1.36,oem by Ross Wheeler,2013-06-08 13:40:00,
2013-06-08 09:46:00,60.1,57.0,29.78,SW,233,1.0,10.0,88,0.00,,,1.36,oem by Ross Wheeler,2013-06-08 13:46:00,
2013-06-08 09:55:00,60.7,57.0,29.79,West,259,0.0,9.0,87,0.00,,,1.36,oem by Ross Wheeler,2013-06-08 13:55:00,
2013-06-08 10:01:00,60.6,56.0,29.80,WSW,244,9.0,10.0,86,0.00,,,1.36,oem by Ross Wheeler,2013-06-08 14:01:00,
2013-06-08 10:10:00,61.3,57.0,29.79,West,269,2.0,12.0,87,0.00,,,1.36,oem by Ross Wheeler,2013-06-08 14:10:00,
2013-06-08 10:16:00,61.8,58.0,29.79,East,80,1.0,6.0,86,0.00,,,1.36,oem by Ross Wheeler,2013-06-08 14:16:00,
2013-06-08 10:25:00,62.8,58.0,29.80,WSW,249,5.0,8.0,84,0.00,,,1.36,oem by Ross Wheeler,2013-06-08 14:25:00,
2013-06-08 10:31:00,63.0,58.0,29.81,WSW,243,5.0,11.0,84,0.00,,,1.36,oem by Ross Wheeler,2013-06-08 14:31:00,
2013-06-08 10:40:00,64.2,59.0,29.81,West,280,7.0,7.0,82,0.00,,,1.36,oem by Ross Wheeler,2013-06-08 14:40:00,
2013-06-08 10:46:00,64.7,59.0,29.82,SW,225,5.0,9.0,82,0.00,,,1.36,oem by Ross Wheeler,2013-06-08 14:46:00,
2013-06-08 10:55:00,65.9,60.0,29.81,West,262,4.0,9.0,80,0.00,,,1.36,oem by Ross Wheeler,2013-06-08 14:55:00,
2013-06-08 11:01:00,66.0,60.0,29.81,NW,316,2.0,11.0,81,0.00,,,1.36,oem by Ross Wheeler,2013-06-08 15:01:00,
2013-06-08 11:10:00,67.1,61.0,29.82,West,262,1.0,8.0,80,0.00,,,1.36,oem by Ross Wheeler,2013-06-08 15:10:00,
2013-06-08 11:16:00,67.6,61.0,29.83,West,259,2.0,8.0,79,0.00,,,1.36,oem by Ross Wheeler,2013-06-08 15:16:00,
2013-06-08 11:25:00,66.0,60.0,29.84,WNW,298,3.0,8.0,80,0.00,,,1.36,oem by Ross Wheeler,2013-06-08 15:25:00,
2013-06-08 11:31:00,65.4,60.0,29.84,West,259,7.0,10.0,82,0.00,,,1.36,oem by Ross Wheeler,2013-06-08 15:31:00,
2013-06-08 11:40:00,65.6,60.0,29.84,West,267,3.0,12.0,81,0.00,,,1.36,oem by Ross Wheeler,2013-06-08 15:40:00,
2013-06-08 11:46:00,65.8,60.0,29.85,SW,233,5.0,12.0,81,0.00,,,1.36,oem by Ross Wheeler,2013-06-08 15:46:00,
2013-06-08 11:55:00,65.1,60.0,29.85,West,278,1.0,13.0,83,0.00,,,1.36,oem by Ross Wheeler,2013-06-08 15:55:00,
2013-06-08 12:01:00,64.8,60.0,29.85,West,264,5.0,13.0,84,0.00,,,1.36,oem by Ross Wheeler,2013-06-08 16:01:00,
2013-06-08 12:10:00,64.7,60.0,29.86,SSW,210,5.0,13.0,84,0.00,,,1.36,oem by Ross Wheeler,2013-06-08 16:10:00,
2013-06-08 12:16:00,64.9,60.0,29.86,West,264,5.0,13.0,84,0.00,,,1.36,oem by Ross Wheeler,2013-06-08 16:16:00,
2013-06-08 12:25:00,64.9,59.0,29.86,SW,234,8.0,15.0,82,0.00,,,1.36,oem by Ross Wheeler,2013-06-08 16:25:00,
2013-06-08 12:31:00,64.9,60.0,29.85,West,274,1.0,16.0,84,0.00,,,1.36,oem by Ross Wheeler,2013-06-08 16:31:00,
2013-06-08 12:40:00,66.1,61.0,29.86,SSW,198,2.0,11.0,82,0.00,,,1.36,oem by Ross Wheeler,2013-06-08 16:40:00,
2013-06-08 12:46:00,66.0,60.0,29.86,South,175,8.0,15.0,82,0.00,,,1.36,oem by Ross Wheeler,2013-06-08 16:46:00,
2013-06-08 12:55:00,65.5,60.0,29.86,West,264,7.0,15.0,83,0.00,,,1.36,oem by Ross Wheeler,2013-06-08 16:55:00,
2013-06-08 13:01:00,65.4,60.0,29.86,SW,227,6.0,14.0,82,0.00,,,1.36,oem by Ross Wheeler,2013-06-08 17:01:00,
2013-06-08 13:10:00,66.2,61.0,29.86,West,263,4.0,14.0,82,0.00,,,1.36,oem by Ross Wheeler,2013-06-08 17:10:00,
2013-06-08 13:16:00,66.8,61.0,29.86,WSW,250,9.0,13.0,81,0.00,,,1.36,oem by Ross Wheeler,2013-06-08 17:16:00,
2013-06-08 13:25:00,66.8,60.0,29.86,SW,216,4.0,15.0,80,0.00,,,1.36,oem by Ross Wheeler,2013-06-08 17:25:00,
2013-06-08 13:31:00,66.8,61.0,29.87,WSW,249,3.0,14.0,81,0.00,,,1.36,oem by Ross Wheeler,2013-06-08 17:31:00,
2013-06-08 13:40:00,66.8,61.0,29.87,SSW,196,3.0,16.0,81,0.00,,,1.36,oem by Ross Wheeler,2013-06-08 17:40:00,
2013-06-08 13:46:00,67.3,61.0,29.87,SW,219,7.0,17.0,81,0.00,,,1.36,oem by Ross Wheeler,2013-06-08 17:46:00,
2013-06-08 13:55:00,67.1,61.0,29.87,SW,229,6.0,15.0,81,0.00,,,1.36,oem by Ross Wheeler,2013-06-08 17:55:00,
2013-06-08 14:01:00,68.0,62.0,29.87,West,269,10.0,13.0,80,0.00,,,1.36,oem by Ross Wheeler,2013-06-08 18:01:00,
2013-06-08 14:10:00,68.6,62.0,29.88,WSW,243,1.0,18.0,79,0.00,,,1.36,oem by Ross Wheeler,2013-06-08 18:10:00,
2013-06-08 14:16:00,68.6,62.0,29.88,SW,226,7.0,14.0,78,0.00,,,1.36,oem by Ross Wheeler,2013-06-08 18:16:00,
2013-06-08 14:25:00,68.8,62.0,29.87,West,270,1.0,12.0,79,0.00,,,1.36,oem by Ross Wheeler,2013-06-08 18:25:00,
2013-06-08 14:31:00,69.3,62.0,29.87,West,259,8.0,13.0,78,0.00,,,1.36,oem by Ross Wheeler,2013-06-08 18:31:00,
2013-06-08 14:40:00,69.7,62.0,29.87,West,264,4.0,15.0,76,0.00,,,1.36,oem by Ross Wheeler,2013-06-08 18:40:00,
2013-06-08 14:46:00,70.3,62.0,29.87,SW,225,6.0,12.0,76,0.00,,,1.36,oem by Ross Wheeler,2013-06-08 18:46:00,
2013-06-08 14:55:00,70.6,63.0,29.87,WSW,240,9.0,14.0,76,0.00,,,1.36,oem by Ross Wheeler,2013-06-08 18:55:00,
2013-06-08 15:01:00,70.9,63.0,29.88,SSW,197,11.0,12.0,75,0.00,,,1.36,oem by Ross Wheeler,2013-06-08 19:01:00,
2013-06-08 15:10:00,70.6,63.0,29.88,SW,222,3.0,15.0,76,0.00,,,1.36,oem by Ross Wheeler,2013-06-08 19:10:00,
2013-06-08 15:16:00,71.5,63.0,29.88,WSW,250,1.0,10.0,75,0.00,,,1.36,oem by Ross Wheeler,2013-06-08 19:16:00,
2013-06-08 15:25:00,71.7,63.0,29.88,SW,221,2.0,13.0,74,0.00,,,1.36,oem by Ross Wheeler,2013-06-08 19:25:00,
2013-06-08 15:31:00,72.2,63.0,29.88,SW,235,6.0,10.0,72,0.00,,,1.36,oem by Ross Wheeler,2013-06-08 19:31:00,
2013-06-08 15:40:00,72.7,63.0,29.89,SSW,197,2.0,14.0,72,0.00,,,1.36,oem by Ross Wheeler,2013-06-08 19:40:00,
2013-06-08 15:46:00,73.0,63.0,29.88,East,93,7.0,14.0,72,0.00,,,1.36,oem by Ross Wheeler,2013-06-08 19:46:00,
2013-06-08 15:55:00,73.0,64.0,29.89,West,271,5.0,11.0,73,0.00,,,1.36,oem by Ross Wheeler,2013-06-08 19:55:00,
2013-06-08 16:01:00,72.5,64.0,29.89,West,271,4.0,9.0,74,0.00,,,1.36,oem by Ross Wheeler,2013-06-08 20:01:00,
2013-06-08 16:11:00,72.6,63.0,29.88,South,190,4.0,7.0,73,0.00,,,1.36,oem by Ross Wheeler,2013-06-08 20:11:00,
2013-06-08 16:16:00,72.6,63.0,29.88,West,259,5.0,9.0,73,0.00,,,1.36,oem by Ross Wheeler,2013-06-08 20:16:00,
2013-06-08 16:25:00,72.8,64.0,29.88,West,271,5.0,8.0,73,0.00,,,1.36,oem by Ross Wheeler,2013-06-08 20:25:00,
2013-06-08 16:31:00,73.6,65.0,29.89,SSE,156,3.0,8.0,74,0.00,,,1.36,oem by Ross Wheeler,2013-06-08 20:31:00,
2013-06-08 16:40:00,72.1,63.0,29.90,SW,231,0.0,8.0,74,0.00,,,1.36,oem by Ross Wheeler,2013-06-08 20:40:00,
2013-06-08 16:46:00,71.1,62.0,29.89,SW,219,6.0,7.0,74,0.00,,,1.36,oem by Ross Wheeler,2013-06-08 20:46:00,
2013-06-08 16:55:00,70.4,63.0,29.89,West,264,0.0,6.0,77,0.00,,,1.36,oem by Ross Wheeler,2013-06-08 20:55:00,
2013-06-08 17:01:00,70.4,63.0,29.89,SW,229,2.0,6.0,77,0.00,,,1.36,oem by Ross Wheeler,2013-06-08 21:01:00,
2013-06-08 17:10:00,70.1,63.0,29.91,WSW,250,1.0,7.0,78,0.00,,,1.36,oem by Ross Wheeler,2013-06-08 21:10:00,
2013-06-08 17:16:00,70.0,63.0,29.89,West,262,1.0,7.0,78,0.00,,,1.36,oem by Ross Wheeler,2013-06-08 21:16:00,
2013-06-08 17:25:00,71.2,64.0,29.90,WNW,285,5.0,7.0,78,0.00,,,1.36,oem by Ross Wheeler,2013-06-08 21:25:00,
2013-06-08 17:31:00,71.9,64.0,29.90,WNW,298,1.0,7.0,76,0.00,,,1.36,oem by Ross Wheeler,2013-06-08 21:31:00,
2013-06-08 17:40:00,72.0,64.0,29.90,SSW,211,1.0,7.0,76,0.00,,,1.36,oem by Ross Wheeler,2013-06-08 21:40:00,
2013-06-08 17:46:00,72.5,65.0,29.91,SW,217,2.0,7.0,76,0.00,,,1.36,oem by Ross Wheeler,2013-06-08 21:46:00,
2013-06-08 17:55:00,73.1,66.0,29.91,South,183,0.0,7.0,77,0.00,,,1.36,oem by Ross Wheeler,2013-06-08 21:55:00,
2013-06-08 18:01:00,74.0,66.0,29.91,WSW,245,1.0,6.0,75,0.00,,,1.36,oem by Ross Wheeler,2013-06-08 22:01:00,
2013-06-08 18:10:00,73.3,65.0,29.91,West,281,4.0,5.0,76,0.00,,,1.36,oem by Ross Wheeler,2013-06-08 22:10:00,
2013-06-08 18:16:00,72.8,65.0,29.91,West,274,2.0,6.0,77,0.00,,,1.36,oem by Ross Wheeler,2013-06-08 22:16:00,
2013-06-08 18:25:00,73.3,66.0,29.92,SW,224,0.0,5.0,77,0.00,,,1.36,oem by Ross Wheeler,2013-06-08 22:25:00,
2013-06-08 18:31:00,71.9,65.0,29.92,West,259,3.0,5.0,78,0.00,,,1.36,oem by Ross Wheeler,2013-06-08 22:31:00,
2013-06-08 18:40:00,70.4,65.0,29.92,SW,222,2.0,6.0,82,0.00,,,1.36,oem by Ross Wheeler,2013-06-08 22:40:00,
2013-06-08 18:46:00,70.1,65.0,29.92,SW,232,0.0,6.0,83,0.00,,,1.36,oem by Ross Wheeler,2013-06-08 22:46:00,
2013-06-08 18:55:00,69.7,65.0,29.93,SSW,204,1.0,3.0,84,0.00,,,1.36,oem by Ross Wheeler,2013-06-08 22:55:00,
2013-06-08 19:01:00,69.3,64.0,29.93,WSW,252,0.0,3.0,84,0.00,,,1.36,oem by Ross Wheeler,2013-06-08 23:01:00,
2013-06-08 19:10:00,69.2,65.0,29.93,South,190,0.0,4.0,85,0.00,,,1.36,oem by Ross Wheeler,2013-06-08 23:10:00,
2013-06-08 19:16:00,69.7,64.0,29.93,West,274,3.0,4.0,83,0.00,,,1.36,oem by Ross Wheeler,2013-06-08 23:16:00,
2013-06-08 19:25:00,68.9,64.0,29.94,WSW,253,2.0,4.0,84,0.00,,,1.36,oem by Ross Wheeler,2013-06-08 23:25:00,
2013-06-08 19:31:00,68.6,64.0,29.94,WSW,242,0.0,3.0,85,0.00,,,1.36,oem by Ross Wheeler,2013-06-08 23:31:00,
2013-06-08 19:40:00,67.7,63.0,29.94,WSW,246,0.0,5.0,86,0.00,,,1.36,oem by Ross Wheeler,2013-06-08 23:40:00,
2013-06-08 19:46:00,67.2,63.0,29.94,SW,233,0.0,3.0,87,0.00,,,1.36,oem by Ross Wheeler,2013-06-08 23:46:00,
2013-06-08 19:55:00,66.4,63.0,29.94,West,262,0.0,4.0,88,0.00,,,1.36,oem by Ross Wheeler,2013-06-08 23:55:00,
2013-06-08 20:01:00,66.2,63.0,29.95,WSW,256,1.0,3.0,89,0.00,,,1.36,oem by Ross Wheeler,2013-06-09 00:01:00,
2013-06-08 20:10:00,65.9,63.0,29.95,West,274,2.0,4.0,89,0.00,,,1.36,oem by Ross Wheeler,2013-06-09 00:10:00,
2013-06-08 20:16:00,65.8,63.0,29.95,SSW,212,0.0,3.0,90,0.00,,,1.36,oem by Ross Wheeler,2013-06-09 00:16:00,
2013-06-08 20:25:00,65.5,63.0,29.95,WSW,248,1.0,4.0,90,0.00,,,1.36,oem by Ross Wheeler,2013-06-09 00:25:00,
2013-06-08 20:31:00,65.4,63.0,29.95,West,259,0.0,3.0,90,0.00,,,1.36,oem by Ross Wheeler,2013-06-09 00:31:00,
2013-06-08 20:40:00,65.2,63.0,29.95,WSW,240,0.0,2.0,91,0.00,,,1.36,oem by Ross Wheeler,2013-06-09 00:40:00,
2013-06-08 20:46:00,65.0,62.0,29.95,WSW,240,0.0,1.0,91,0.00,,,1.36,oem by Ross Wheeler,2013-06-09 00:46:00,
2013-06-08 20:55:00,64.6,62.0,29.95,WSW,240,0.0,0.0,92,0.00,,,1.36,oem by Ross Wheeler,2013-06-09 00:55:00,
2013-06-08 21:01:00,64.6,62.0,29.95,SW,218,0.0,1.0,92,0.00,,,1.36,oem by Ross Wheeler,2013-06-09 01:01:00,
2013-06-08 21:10:00,64.6,63.0,29.95,SSW,210,0.0,1.0,93,0.00,,,1.36,oem by Ross Wheeler,2013-06-09 01:10:00,
2013-06-08 21:16:00,64.7,63.0,29.95,SSW,208,1.0,3.0,93,0.00,,,1.36,oem by Ross Wheeler,2013-06-09 01:16:00,
2013-06-08 21:25:00,64.6,63.0,29.96,SSW,208,0.0,1.0,93,0.00,,,1.36,oem by Ross Wheeler,2013-06-09 01:25:00,
2013-06-08 21:31:00,64.5,63.0,29.96,SSW,208,0.0,0.0,93,0.00,,,1.36,oem by Ross Wheeler,2013-06-09 01:31:00,
2013-06-08 21:40:00,64.2,62.0,29.96,SSW,208,0.0,0.0,93,0.00,,,1.36,oem by Ross Wheeler,2013-06-09 01:40:00,
2013-06-08 21:46:00,64.1,62.0,29.96,SSW,210,0.0,1.0,94,0.00,,,1.36,oem by Ross Wheeler,2013-06-09 01:46:00,
2013-06-08 21:55:00,63.8,62.0,29.97,SSW,210,0.0,0.0,94,0.00,,,1.36,oem by Ross Wheeler,2013-06-09 01:55:00,
2013-06-08 22:01:00,63.5,62.0,29.98,SSW,210,0.0,0.0,94,0.00,,,1.36,oem by Ross Wheeler,2013-06-09 02:01:00,
2013-06-08 22:10:00,63.4,62.0,29.98,SSW,210,0.0,0.0,94,0.00,,,1.36,oem by Ross Wheeler,2013-06-09 02:10:00,
2013-06-08 22:16:00,63.6,62.0,29.99,SSW,210,0.0,1.0,95,0.00,,,1.36,oem by Ross Wheeler,2013-06-09 02:16:00,
2013-06-08 22:25:00,63.9,63.0,29.99,WSW,255,1.0,5.0,95,0.00,,,1.36,oem by Ross Wheeler,2013-06-09 02:25:00,
2013-06-08 22:31:00,64.2,63.0,29.99,WSW,252,3.0,6.0,95,0.00,,,1.36,oem by Ross Wheeler,2013-06-09 02:31:00,
2013-06-08 22:40:00,64.3,63.0,29.99,WSW,249,2.0,4.0,94,0.00,,,1.36,oem by Ross Wheeler,2013-06-09 02:40:00,
2013-06-08 22:46:00,64.1,62.0,29.99,WSW,255,0.0,3.0,94,0.00,,,1.36,oem by Ross Wheeler,2013-06-09 02:46:00,
2013-06-08 22:55:00,63.8,62.0,29.99,WSW,257,0.0,1.0,94,0.00,,,1.36,oem by Ross Wheeler,2013-06-09 02:55:00,
2013-06-08 23:01:00,63.5,62.0,29.99,WSW,257,0.0,0.0,94,0.00,,,1.36,oem by Ross Wheeler,2013-06-09 03:01:00,
2013-06-08 23:10:00,63.2,62.0,29.99,WSW,257,0.0,0.0,94,0.00,,,1.36,oem by Ross Wheeler,2013-06-09 03:10:00,
2013-06-08 23:16:00,62.9,62.0,30.00,WSW,256,0.0,0.0,95,0.00,,,1.36,oem by Ross Wheeler,2013-06-09 03:16:00,
2013-06-08 23:25:00,62.8,61.0,30.00,SSW,205,0.0,1.0,95,0.00,,,1.36,oem by Ross Wheeler,2013-06-09 03:25:00,
2013-06-08 23:31:00,62.6,61.0,30.01,SSW,205,0.0,0.0,95,0.00,,,1.36,oem by Ross Wheeler,2013-06-09 03:31:00,
2013-06-08 23:40:00,62.4,61.0,30.01,SSW,204,0.0,0.0,95,0.00,,,1.36,oem by Ross Wheeler,2013-06-09 03:40:00,
2013-06-08 23:46:00,62.3,61.0,30.00,SSW,204,0.0,0.0,95,0.00,,,1.36,oem by Ross Wheeler,2013-06-09 03:46:00,
2013-06-08 23:55:00,62.3,61.0,30.01,SSW,204,0.0,1.0,96,0.00,,,1.36,oem by Ross Wheeler,2013-06-09 03:55:00,